When you browse on this site, cookies collect data to enhance your experience and personalize the content and advertising you see.
Visit our Privacy Policy to learn more. By continuing to use the site, you agree to this use of cookies and data.
  • en France
  • Liste des pays
  • À 7 jours
  • Température de l'eau
  • Carte satellitaire
  • Carte météo
  • Widgets météo
  • user-avatar
    Se connecter

    Météo par heure à Buncrana

    Ce jour, 16 Juillet, Mardi

    Heure Température Précipitation Vent Pression Humidité
    00:00 +14°C° 0 mm 0 m/s 757 mmHg 90%
    01:00 +15°C° 0.1 mm 1 m/s 757 mmHg 91%
    02:00 +15°C° 0.1 mm 1 m/s 756 mmHg 91%
    03:00 +15°C° 0.1 mm 1 m/s 756 mmHg 92%
    04:00 +15°C° 0 mm 1 m/s 756 mmHg 92%
    05:00 +15°C° 0 mm 1 m/s 756 mmHg 93%
    06:00 +16°C° 0 mm 1 m/s 756 mmHg 93%
    07:00 +16°C° 0 mm 1 m/s 756 mmHg 89%
    08:00 +17°C° 0 mm 2 m/s 756 mmHg 84%
    09:00 +18°C° 0 mm 2 m/s 756 mmHg 79%
    10:00 +19°C° 0.1 mm 2 m/s 756 mmHg 75%
    11:00 +20°C° 0.1 mm 3 m/s 756 mmHg 71%
    12:00 +21°C° 0.1 mm 3 m/s 755 mmHg 67%
    13:00 +20°C° 0.1 mm 3 m/s 755 mmHg 67%
    14:00 +20°C° 0.1 mm 3 m/s 755 mmHg 67%
    15:00 +20°C° 0.1 mm 3 m/s 755 mmHg 67%
    16:00 +20°C° 0.1 mm 2 m/s 755 mmHg 71%
    17:00 +19°C° 0.1 mm 2 m/s 754 mmHg 76%
    18:00 +18°C° 0.1 mm 2 m/s 754 mmHg 80%
    19:00 +17°C° 0 mm 2 m/s 754 mmHg 83%
    20:00 +16°C° 0 mm 1 m/s 754 mmHg 85%
    21:00 +16°C° 0 mm 1 m/s 754 mmHg 88%
    22:00 +15°C° 0 mm 1 m/s 753 mmHg 89%
    23:00 +15°C° 0 mm 2 m/s 753 mmHg 91%

    Demain, 17 Juillet, Mercredi

    Heure Température Précipitation Vent Pression Humidité
    00:00 +14°C° 0 mm 2 m/s 753 mmHg 92%
    01:00 +14°C° 0.2 mm 2 m/s 752 mmHg 93%
    02:00 +13°C° 0.2 mm 3 m/s 751 mmHg 93%
    03:00 +13°C° 0.2 mm 3 m/s 751 mmHg 94%
    04:00 +13°C° 1 mm 4 m/s 751 mmHg 95%
    05:00 +13°C° 1 mm 4 m/s 750 mmHg 95%
    06:00 +13°C° 1 mm 4 m/s 750 mmHg 96%
    07:00 +13°C° 0.6 mm 5 m/s 749 mmHg 96%
    08:00 +14°C° 0.6 mm 5 m/s 749 mmHg 95%
    09:00 +14°C° 0.6 mm 6 m/s 749 mmHg 95%
    10:00 +14°C° 0.3 mm 6 m/s 749 mmHg 95%
    11:00 +14°C° 0.3 mm 5 m/s 749 mmHg 94%
    12:00 +15°C° 0.3 mm 5 m/s 749 mmHg 94%
    13:00 +15°C° 0.4 mm 5 m/s 749 mmHg 95%
    14:00 +15°C° 0.4 mm 4 m/s 748 mmHg 95%
    15:00 +16°C° 0.4 mm 3 m/s 748 mmHg 96%
    16:00 +14°C° 0.8 mm 3 m/s 748 mmHg 96%
    17:00 +14°C° 0.8 mm 3 m/s 748 mmHg 96%
    18:00 +13°C° 0.8 mm 3 m/s 748 mmHg 96%
    19:00 +13°C° 0 mm 3 m/s 748 mmHg 95%
    20:00 +12°C° 0 mm 3 m/s 748 mmHg 95%
    21:00 +12°C° 0 mm 3 m/s 748 mmHg 94%
    22:00 +11°C° 0 mm 3 m/s 748 mmHg 94%
    23:00 +11°C° 0 mm 3 m/s 748 mmHg 94%

    Après-demain, 18 Juillet, Jeudi

    Heure Température Précipitation Vent Pression Humidité
    00:00 +10°C° 0 mm 3 m/s 748 mmHg 94%
    01:00 +10°C° 0 mm 3 m/s 748 mmHg 94%
    02:00 +10°C° 0 mm 3 m/s 748 mmHg 94%
    03:00 +10°C° 0 mm 3 m/s 748 mmHg 94%
    04:00 +11°C° 0 mm 4 m/s 748 mmHg 94%
    05:00 +11°C° 0 mm 4 m/s 748 mmHg 93%
    06:00 +11°C° 0 mm 4 m/s 747 mmHg 93%
    07:00 +12°C° 0.3 mm 4 m/s 747 mmHg 92%
    08:00 +13°C° 0.3 mm 5 m/s 747 mmHg 90%
    09:00 +14°C° 0.3 mm 6 m/s 748 mmHg 88%
    10:00 +15°C° 0.6 mm 6 m/s 748 mmHg 87%
    11:00 +15°C° 0.6 mm 6 m/s 748 mmHg 85%
    12:00 +15°C° 0.6 mm 6 m/s 748 mmHg 83%
    13:00 +15°C° 0.4 mm 6 m/s 748 mmHg 83%
    14:00 +16°C° 0.4 mm 6 m/s 748 mmHg 82%
    15:00 +16°C° 0.4 mm 7 m/s 748 mmHg 81%
    16:00 +15°C° 0.4 mm 6 m/s 748 mmHg 83%
    17:00 +15°C° 0.4 mm 6 m/s 748 mmHg 84%
    18:00 +14°C° 0.4 mm 6 m/s 748 mmHg 86%
    19:00 +13°C° 0.1 mm 5 m/s 748 mmHg 88%
    20:00 +13°C° 0.1 mm 5 m/s 748 mmHg 91%
    21:00 +12°C° 0.1 mm 4 m/s 749 mmHg 93%
    22:00 +11°C° 0 mm 4 m/s 749 mmHg 94%
    23:00 +11°C° 0 mm 3 m/s 749 mmHg 95%

    19 Juillet, Vendredi

    Heure Température Précipitation Vent Pression Humidité
    00:00 +10°C° 0 mm 3 m/s 749 mmHg 96%
    01:00 +10°C° 0 mm 3 m/s 749 mmHg 96%
    02:00 +9°C° 0 mm 2 m/s 749 mmHg 96%
    03:00 +9°C° 0 mm 2 m/s 749 mmHg 96%
    04:00 +9°C° 0 mm 2 m/s 749 mmHg 96%
    05:00 +10°C° 0 mm 2 m/s 749 mmHg 96%
    06:00 +10°C° 0 mm 2 m/s 749 mmHg 96%
    07:00 +12°C° 0 mm 2 m/s 749 mmHg 92%
    08:00 +14°C° 0 mm 2 m/s 749 mmHg 88%
    09:00 +15°C° 0 mm 2 m/s 749 mmHg 85%
    10:00 +15°C° 0.1 mm 2 m/s 749 mmHg 82%
    11:00 +16°C° 0.1 mm 2 m/s 749 mmHg 80%
    12:00 +16°C° 0.1 mm 2 m/s 749 mmHg 78%
    13:00 +16°C° 0.1 mm 2 m/s 748 mmHg 78%
    14:00 +18°C° 0.1 mm 1 m/s 748 mmHg 77%
    15:00 +18°C° 0.1 mm 1 m/s 748 mmHg 77%
    16:00 +18°C° 0.2 mm 1 m/s 748 mmHg 81%
    17:00 +16°C° 0.2 mm 1 m/s 748 mmHg 84%
    18:00 +16°C° 0.2 mm 1 m/s 748 mmHg 87%
    19:00 +15°C° 0.2 mm 1 m/s 747 mmHg 89%
    20:00 +15°C° 0.2 mm 1 m/s 747 mmHg 90%
    21:00 +14°C° 0.2 mm 1 m/s 747 mmHg 92%
    22:00 +14°C° 0.2 mm 1 m/s 747 mmHg 92%
    23:00 +13°C° 0.2 mm 1 m/s 747 mmHg 93%

    20 Juillet, Samedi

    Heure Température Précipitation Vent Pression Humidité
    00:00 +13°C° 0.2 mm 1 m/s 747 mmHg 94%
    01:00 +12°C° 0.2 mm 0 m/s 746 mmHg 94%
    02:00 +12°C° 0.2 mm 0 m/s 746 mmHg 94%
    03:00 +12°C° 0.2 mm 0 m/s 746 mmHg 94%
    04:00 +13°C° 0.1 mm 1 m/s 746 mmHg 94%
    05:00 +13°C° 0.1 mm 1 m/s 746 mmHg 93%
    06:00 +13°C° 0.1 mm 1 m/s 746 mmHg 92%
    07:00 +14°C° 0 mm 2 m/s 747 mmHg 89%
    08:00 +16°C° 0 mm 2 m/s 747 mmHg 85%
    09:00 +17°C° 0 mm 3 m/s 747 mmHg 81%
    10:00 +17°C° 0.1 mm 4 m/s 748 mmHg 78%
    11:00 +17°C° 0.1 mm 4 m/s 748 mmHg 74%
    12:00 +17°C° 0.1 mm 5 m/s 748 mmHg 71%
    13:00 +17°C° 0 mm 5 m/s 749 mmHg 69%
    14:00 +17°C° 0 mm 5 m/s 749 mmHg 67%
    15:00 +17°C° 0 mm 5 m/s 749 mmHg 65%
    16:00 +17°C° 0 mm 4 m/s 750 mmHg 67%
    17:00 +17°C° 0 mm 3 m/s 750 mmHg 70%
    18:00 +17°C° 0 mm 3 m/s 750 mmHg 72%
    19:00 +15°C° 0 mm 2 m/s 751 mmHg 78%
    20:00 +14°C° 0 mm 2 m/s 751 mmHg 84%
    21:00 +13°C° 0 mm 1 m/s 752 mmHg 90%
    22:00 +12°C° 0 mm 1 m/s 752 mmHg 91%
    23:00 +12°C° 0 mm 2 m/s 752 mmHg 92%

    21 Juillet, Dimanche

    Heure Température Précipitation Vent Pression Humidité
    00:00 +10°C° 0 mm 2 m/s 752 mmHg 93%
    01:00 +12°C° 0 mm 2 m/s 752 mmHg 92%
    02:00 +12°C° 0 mm 2 m/s 752 mmHg 91%
    03:00 +12°C° 0 mm 2 m/s 752 mmHg 90%
    04:00 +12°C° 0.3 mm 2 m/s 752 mmHg 91%
    05:00 +12°C° 0.3 mm 3 m/s 752 mmHg 93%
    06:00 +12°C° 0.3 mm 3 m/s 752 mmHg 94%
    07:00 +13°C° 0 mm 4 m/s 753 mmHg 93%
    08:00 +14°C° 0 mm 4 m/s 753 mmHg 91%
    09:00 +15°C° 0 mm 5 m/s 753 mmHg 89%
    10:00 +16°C° 0 mm 5 m/s 753 mmHg 86%
    11:00 +17°C° 0 mm 5 m/s 754 mmHg 83%
    12:00 +19°C° 0 mm 5 m/s 754 mmHg 80%
    13:00 +20°C° 0 mm 4 m/s 754 mmHg 78%
    14:00 +20°C° 0 mm 4 m/s 754 mmHg 77%
    15:00 +21°C° 0 mm 4 m/s 754 mmHg 75%
    16:00 +21°C° 0.3 mm 4 m/s 755 mmHg 78%
    17:00 +21°C° 0.3 mm 3 m/s 755 mmHg 80%
    18:00 +21°C° 0.3 mm 3 m/s 755 mmHg 83%
    19:00 +20°C° 0 mm 3 m/s 755 mmHg 86%
    20:00 +19°C° 0 mm 3 m/s 755 mmHg 89%
    21:00 +17°C° 0 mm 3 m/s 755 mmHg 92%
    22:00 +17°C° 0 mm 3 m/s 755 mmHg 93%
    23:00 +17°C° 0 mm 4 m/s 754 mmHg 93%
    Voir plus